Location: Unspecified
(0.0000°N, 0.0000°E)
Time: 19:05:36
(UTC+00:00)

Vanguard 2 - Pass Details

Date: 21 November 2019
Orbit: 553 x 2938 km, 32.9° (Epoch: 08 December)

Event Time Altitude Azimuth Distance (km) Brightness Sun altitude
Rises 02:07:52 0° 224° (SW) 6,342 12.1 -50.0°
Reaches altitude 10° 02:12:04 10° 219° (SW) 5,522 11.8 -49.1°
Maximum altitude 02:28:59 52° 147° (SSE) 3,390 10.7 -45.4°
Drops below altitude 10° 02:44:23 10° 75° (ENE) 5,119 12.1 -42.0°
Sets 02:48:02 0° 70° (ENE) 5,874 12.5 -41.2°
